TimeCST,TemperatureF,Dew PointF,Humidity,Sea Level PressureIn,VisibilityMPH,Wind Direction,Wind SpeedMPH,Gust SpeedMPH,PrecipitationIn,Events,Conditions,WindDirDegrees,DateUTC
12:13 AM,17.6,14.0,86,30.10,5.0,NNW,25.3,29.9,N/A,Snow,Light Snow,340,2012-11-23 06:13:00
12:33 AM,17.6,14.0,86,30.11,10.0,NNW,25.3,32.2,N/A,,Overcast,330,2012-11-23 06:33:00
12:54 AM,17.6,14.0,86,30.12,10.0,NNW,24.2,28.8,N/A,,Overcast,340,2012-11-23 06:54:00
1:13 AM,17.6,14.0,86,30.13,10.0,NNW,23.0,31.1,N/A,,Overcast,340,2012-11-23 07:13:00
1:34 AM,17.6,14.0,86,30.14,7.0,NNW,23.0,-,N/A,Snow,Light Snow,330,2012-11-23 07:34:00
1:53 AM,17.6,14.0,86,30.15,10.0,NNW,21.9,-,N/A,,Overcast,330,2012-11-23 07:53:00
2:13 AM,17.6,14.0,86,30.16,10.0,NNW,23.0,-,N/A,,Overcast,330,2012-11-23 08:13:00
2:33 AM,15.8,12.2,86,30.18,10.0,NW,25.3,-,N/A,Snow,Light Snow,320,2012-11-23 08:33:00
2:53 AM,15.8,12.2,86,30.19,10.0,NW,21.9,-,N/A,Snow,Light Snow,320,2012-11-23 08:53:00
3:14 AM,15.8,12.2,86,30.20,10.0,NW,19.6,-,N/A,Snow,Light Snow,320,2012-11-23 09:14:00
3:33 AM,15.8,12.2,86,30.20,7.0,NW,20.7,-,N/A,Snow,Light Snow,310,2012-11-23 09:33:00
3:54 AM,15.8,12.2,86,30.21,10.0,NW,23.0,-,N/A,Snow,Light Snow,320,2012-11-23 09:54:00
4:13 AM,15.8,12.2,86,30.22,10.0,NNW,23.0,-,N/A,Snow,Light Snow,330,2012-11-23 10:13:00
4:33 AM,15.8,12.2,86,30.22,10.0,NNW,20.7,27.6,N/A,Snow,Light Snow,330,2012-11-23 10:33:00
4:54 AM,15.8,10.4,79,30.23,7.0,NW,20.7,-,N/A,Snow,Light Snow,320,2012-11-23 10:54:00
5:13 AM,15.8,12.2,86,30.24,10.0,NW,21.9,-,N/A,Snow,Light Snow,320,2012-11-23 11:13:00
5:33 AM,15.8,10.4,79,30.26,10.0,NNW,19.6,-,N/A,Snow,Light Snow,330,2012-11-23 11:33:00
5:54 AM,15.8,10.4,79,30.26,5.0,NW,18.4,-,N/A,Snow,Light Snow,320,2012-11-23 11:54:00
6:13 AM,15.8,10.4,79,30.26,7.0,NW,23.0,-,N/A,Snow,Light Snow,320,2012-11-23 12:13:00
6:33 AM,15.8,12.2,86,30.27,7.0,NW,24.2,-,N/A,Snow,Light Snow,320,2012-11-23 12:33:00
7:13 AM,15.8,10.4,79,30.28,7.0,NNW,18.4,-,N/A,Snow,Light Snow,330,2012-11-23 13:13:00
7:33 AM,14.0,10.4,86,30.29,10.0,NW,20.7,25.3,N/A,Snow,Light Snow,320,2012-11-23 13:33:00
7:53 AM,14.0,10.4,86,30.29,7.0,NW,19.6,-,N/A,Snow,Light Snow,320,2012-11-23 13:53:00
8:13 AM,14.0,10.4,86,30.30,7.0,NW,20.7,26.5,N/A,Snow,Light Snow,310,2012-11-23 14:13:00
8:34 AM,14.0,10.4,86,30.31,5.0,NW,18.4,-,N/A,Snow,Light Snow,310,2012-11-23 14:34:00
8:53 AM,12.2,10.4,92,30.32,5.0,NW,18.4,-,N/A,Snow,Light Snow,310,2012-11-23 14:53:00
9:13 AM,12.2,8.6,85,30.32,3.0,NW,19.6,-,N/A,Snow,Light Snow,310,2012-11-23 15:13:00
9:34 AM,12.2,8.6,85,30.33,3.0,NW,18.4,-,N/A,Snow,Light Snow,310,2012-11-23 15:34:00
9:53 AM,12.2,8.6,85,30.33,7.0,NNW,20.7,25.3,N/A,,Overcast,330,2012-11-23 15:53:00
10:13 AM,12.2,8.6,85,30.34,10.0,NW,23.0,-,N/A,,Overcast,320,2012-11-23 16:13:00
10:34 AM,12.2,8.6,85,30.34,10.0,NW,25.3,-,N/A,,Overcast,320,2012-11-23 16:34:00
10:53 AM,12.2,8.6,85,30.34,10.0,NNW,24.2,29.9,N/A,,Scattered Clouds,330,2012-11-23 16:53:00
11:13 AM,14.0,8.6,79,30.34,10.0,NW,23.0,27.6,N/A,,Scattered Clouds,320,2012-11-23 17:13:00
11:34 AM,14.0,6.8,73,30.34,10.0,NNW,23.0,-,N/A,,Clear,330,2012-11-23 17:34:00
11:53 AM,14.0,8.6,79,30.35,10.0,NW,19.6,25.3,N/A,,Clear,320,2012-11-23 17:53:00
12:13 PM,15.8,8.6,73,30.34,10.0,NNW,20.7,-,N/A,,Clear,330,2012-11-23 18:13:00
12:34 PM,15.8,8.6,73,30.34,10.0,NW,19.6,25.3,N/A,,Clear,310,2012-11-23 18:34:00
12:53 PM,15.8,8.6,73,30.35,10.0,NW,19.6,-,N/A,,Clear,320,2012-11-23 18:53:00
1:13 PM,15.8,8.6,73,30.34,10.0,NNW,24.2,-,N/A,,Clear,330,2012-11-23 19:13:00
1:33 PM,17.6,8.6,68,30.34,10.0,NW,18.4,-,N/A,,Clear,310,2012-11-23 19:33:00
1:53 PM,17.6,8.6,68,30.33,10.0,NNW,21.9,-,N/A,,Clear,330,2012-11-23 19:53:00
2:14 PM,17.6,8.6,68,30.33,10.0,NW,19.6,-,N/A,,Clear,320,2012-11-23 20:14:00
2:33 PM,17.6,10.4,73,30.33,10.0,NW,18.4,-,N/A,,Clear,320,2012-11-23 20:33:00
2:53 PM,17.6,8.6,68,30.33,10.0,NW,18.4,-,N/A,,Clear,310,2012-11-23 20:53:00
3:14 PM,17.6,8.6,68,30.34,10.0,NW,18.4,23.0,N/A,,Clear,320,2012-11-23 21:14:00
3:33 PM,17.6,8.6,68,30.35,10.0,NW,17.3,-,N/A,,Clear,310,2012-11-23 21:33:00
3:53 PM,17.6,10.4,73,30.36,10.0,WNW,18.4,-,N/A,,Clear,300,2012-11-23 21:53:00
4:14 PM,15.8,8.6,73,30.36,10.0,WNW,18.4,-,N/A,,Clear,300,2012-11-23 22:14:00
4:33 PM,15.8,8.6,73,30.37,10.0,WNW,23.0,-,N/A,,Scattered Clouds,300,2012-11-23 22:33:00
4:53 PM,14.0,8.6,79,30.37,10.0,WNW,17.3,-,N/A,,Scattered Clouds,300,2012-11-23 22:53:00
5:14 PM,12.2,8.6,85,30.38,10.0,NW,17.3,-,N/A,,Scattered Clouds,310,2012-11-23 23:14:00
5:33 PM,12.2,6.8,79,30.37,10.0,WNW,16.1,-,N/A,,Clear,300,2012-11-23 23:33:00
5:53 PM,12.2,6.8,79,30.37,10.0,NW,13.8,-,N/A,,Scattered Clouds,310,2012-11-23 23:53:00
6:33 PM,12.2,6.8,79,30.36,10.0,NW,13.8,-,N/A,,Overcast,310,2012-11-24 00:33:00
6:53 PM,12.2,8.6,85,30.35,10.0,WNW,13.8,-,N/A,,Mostly Cloudy,300,2012-11-24 00:53:00
7:13 PM,12.2,8.6,85,30.35,10.0,WNW,16.1,-,N/A,,Mostly Cloudy,300,2012-11-24 01:13:00
7:33 PM,10.4,6.8,85,30.34,10.0,NW,11.5,-,N/A,,Scattered Clouds,310,2012-11-24 01:33:00
7:54 PM,10.4,8.6,92,30.34,10.0,WNW,12.7,-,N/A,,Clear,300,2012-11-24 01:54:00
8:13 PM,10.4,8.6,92,30.34,10.0,WNW,13.8,-,N/A,,Clear,290,2012-11-24 02:13:00
8:33 PM,10.4,6.8,85,30.34,10.0,WNW,10.4,-,N/A,,Clear,290,2012-11-24 02:33:00
8:53 PM,10.4,6.8,85,30.34,10.0,WNW,10.4,-,N/A,,Clear,300,2012-11-24 02:53:00
9:13 PM,10.4,8.6,92,30.33,10.0,WNW,9.2,-,N/A,,Scattered Clouds,300,2012-11-24 03:13:00
9:33 PM,10.4,6.8,85,30.33,10.0,West,8.1,-,N/A,,Mostly Cloudy,280,2012-11-24 03:33:00
9:53 PM,10.4,6.8,85,30.33,10.0,West,9.2,-,N/A,,Mostly Cloudy,280,2012-11-24 03:53:00
10:14 PM,10.4,6.8,85,30.33,10.0,West,9.2,-,N/A,,Overcast,280,2012-11-24 04:14:00
10:33 PM,8.6,6.8,92,30.33,10.0,West,9.2,-,N/A,,Scattered Clouds,270,2012-11-24 04:33:00
10:53 PM,8.6,6.8,92,30.32,10.0,WNW,10.4,-,N/A,Snow,Light Snow,290,2012-11-24 04:53:00
11:13 PM,8.6,6.8,92,30.32,10.0,WNW,11.5,-,N/A,Snow,Light Snow,290,2012-11-24 05:13:00
11:33 PM,10.4,6.8,85,30.31,10.0,WNW,10.4,-,N/A,Snow,Light Snow,300,2012-11-24 05:33:00
11:53 PM,8.6,6.8,92,30.30,10.0,West,6.9,-,N/A,Snow,Light Snow,280,2012-11-24 05:53:00